Wind_Speed
2 2 4 4 4 5 5 5 5 4 4 4 4 4 4 4 4 4 4 3 3 2 2 2 2 1 1 1 1 1 1 2 2 3 3 4 4 4 4 4 5 5 5
2 2 3 3 3 4 5 5 4 4 4 3 3 3 3 3 4 4 3 3 2 2 1 1 0 0 1 1 1 2 2 3 3 4 5 5 5 5 6 6 7 7 7
2 2 3 4 3 3 4 3 3 3 3 2 2 2 2 2 2 2 2 2 1 1 1 1 1 2 2 2 3 3 4 4 5 5 6 6 6 6 7 8 8 9 9
3 3 3 4 3 3 3 3 2 2 1 1 1 1 1 1 1 1 0 0 1 1 2 2 3 3 4 4 5 5 5 6 6 7 7 7 8 8 9 10 10 10 10
3 3 4 5 4 3 3 3 2 2 2 1 1 0 0 0 1 1 1 2 2 3 3 4 4 5 6 6 7 7 8 8 8 8 8 8 9 10 10 11 11 12 12
4 4 4 5 4 3 3 3 3 3 3 2 2 2 2 2 2 3 3 3 4 4 5 5 6 6 7 8 9 9 10 10 11 11 11 11 12 12 13 13 13 13 14
5 4 5 6 5 5 4 4 5 4 4 4 3 3 3 4 4 4 5 5 5 6 6 7 8 9 10 10 11 11 12 12 13 13 13 14 14 15 15 15 15 15 16
5 5 6 6 6 6 6 6 6 6 6 5 5 5 5 5 6 6 7 7 7 8 8 9 10 11 12 12 12 13 14 14 15 15 15 16 16 16 17 16 16 17 18
6 6 6 7 8 8 8 8 8 8 8 8 7 7 7 7 8 8 8 9 9 10 10 11 11 12 13 14 14 15 16 16 16 17 18 18 18 18 18 18 19 19 19
5 6 7 7 8 9 9 9 10 10 9 9 9 9 10 10 10 10 11 11 12 11 12 13 13 13 14 15 16 17 17 17 18 18 19 19 19 19 19 20 20 21 21
6 6 7 8 9 9 10 10 11 11 11 11 11 11 11 12 12 12 12 13 13 13 14 15 15 15 16 16 16 17 18 18 19 20 20 20 20 20 20 21 21 22 23
7 7 8 9 9 10 10 11 11 11 12 12 12 13 13 13 14 14 14 15 15 15 16 16 16 17 18 18 18 19 19 20 20 20 21 21 21 22 22 23 23 24 24
7 8 9 9 9 10 11 11 11 12 12 13 14 14 15 16 16 16 16 16 17 17 18 18 18 19 19 19 19 20 20 21 21 22 22 22 22 24 24 25 25 25 25
8 9 9 9 10 10 11 11 12 13 13 14 15 16 16 16 17 18 18 18 18 19 19 20 20 20 20 20 21 22 22 23 23 24 24 25 25 25 26 26 27 27 27
9 9 9 9 10 10 11 12 12 13 14 15 16 16 17 17 18 18 19 19 20 20 20 21 21 22 22 22 22 22 23 23 24 25 26 26 26 27 27 27 28 28 28
10 10 10 11 11 12 12 13 13 14 15 16 16 17 17 17 18 19 19 19 20 21 21 22 23 24 24 24 23 23 23 24 25 25 26 26 27 28 28 29 29 29 30
11 11 11 12 13 13 14 15 15 15 15 16 16 16 17 18 18 19 19 20 21 22 23 23 25 24 24 24 24 25 25 26 26 27 27 27 28 29 30 30 30 31 31
12 13 13 13 14 14 15 15 16 17 17 17 17 17 18 18 19 20 20 21 22 22 23 23 24 24 25 25 26 27 27 28 28 28 29 29 30 30 30 31 31 31 31
13 14 14 15 15 15 16 16 17 17 18 18 18 19 19 19 20 21 22 22 23 24 24 25 25 26 26 27 29 29 29 30 30 31 31 31 30 31 31 32 32 32 32
15 15 15 16 16 16 16 17 17 18 18 19 19 20 21 21 22 22 23 23 24 25 25 26 27 27 28 29 31 31 31 31 31 31 32 31 31 32 32 32 33 33 33
16 16 16 17 17 17 17 17 18 19 19 20 21 21 22 23 23 24 24 25 26 26 27 28 28 29 30 31 31 31 31 31 31 32 31 31 31 32 33 33 33 33 33
18 18 19 18 18 18 18 19 19 20 21 22 23 23 24 25 25 25 26 27 27 28 28 29 29 30 30 31 30 31 31 31 31 31 32 32 32 33 33 34 34 33 33
20 20 20 19 19 20 20 20 20 21 22 23 23 24 24 25 26 26 27 28 28 29 29 30 31 31 31 31 31 31 31 31 32 32 33 33 33 33 33 33 34 34 34
21 21 21 21 21 21 21 21 22 22 23 24 24 24 24 26 26 27 27 28 28 30 30 30 30 30 31 31 30 31 31 32 33 33 33 34 34 34 34 34 34 34 34
22 22 22 22 22 23 23 23 23 24 24 24 25 25 26 26 27 28 28 29 30 30 31 31 31 31 31 31 32 32 32 32 33 33 33 34 34 34 34 34 34 34 33
23 23 23 23 23 24 24 25 26 25 25 26 26 27 27 27 28 29 30 30 31 31 31 32 31 30 31 31 31 32 32 33 33 33 32 33 34 34 34 34 33 33 34
Wind_Direction
147 147 143 136 130 128 127 127 124 117 108 106 106 103 104 108 112 111 109 103 102 98 100 112 106 100 67 29 351 299 299 303 295 288 292 294 288 282 284 286 286 286 290
195 177 172 159 149 144 141 135 131 124 116 114 107 102 109 113 117 114 110 102 90 85 82 95 88 31 349 338 326 300 297 297 297 299 296 293 289 283 282 285 286 286 287
218 211 193 179 168 158 156 150 147 133 128 122 109 90 92 105 120 122 112 105 85 64 36 314 287 291 296 306 312 315 309 299 298 299 293 290 291 288 284 284 284 285 286
226 214 213 184 175 174 175 175 176 171 160 150 130 94 90 98 120 145 163 323 323 313 307 302 298 292 290 296 299 301 301 300 298 298 295 291 289 290 288 284 284 285 285
232 215 201 193 198 198 204 208 212 222 235 237 238 262 211 234 262 265 293 295 297 300 295 294 299 298 292 292 294 294 295 294 295 296 297 294 292 290 292 290 286 285 284
235 225 214 212 216 217 217 224 233 247 248 250 258 266 269 283 286 282 289 292 296 296 294 294 295 297 296 293 291 292 292 292 291 292 292 293 292 291 290 289 288 284 283
236 232 230 231 231 233 237 243 245 251 252 259 266 271 278 284 287 287 289 291 291 290 291 292 291 292 293 291 291 292 292 291 291 290 291 291 289 288 288 287 286 284 283
240 244 240 237 240 245 247 250 252 256 256 260 266 270 273 279 283 287 288 291 288 287 287 289 290 292 291 291 288 290 291 291 292 291 291 290 290 291 290 289 289 285 283
246 248 247 247 249 252 253 255 257 259 261 262 265 268 270 272 278 286 288 286 285 286 289 291 289 289 289 291 291 291 291 290 291 291 291 291 290 291 290 288 288 288 286
254 254 255 256 258 258 257 257 259 260 262 266 269 271 273 275 277 283 285 285 286 285 290 293 292 291 292 292 291 293 292 292 292 291 291 292 291 289 288 289 288 288 287
263 262 262 261 263 267 264 263 263 263 263 266 270 274 276 278 279 281 284 285 286 288 289 288 288 290 291 292 292 291 290 292 293 292 291 290 290 289 288 286 286 287 286
264 266 269 270 269 270 269 267 267 266 264 266 270 274 275 278 281 281 283 285 287 288 289 289 289 290 290 291 291 291 289 289 291 290 290 290 290 288 288 286 284 286 287
272 269 273 275 273 271 271 270 269 268 268 269 271 276 278 278 279 280 283 284 285 287 288 288 288 289 289 291 292 292 291 290 289 289 289 289 290 289 288 287 286 287 287
286 273 274 274 274 271 271 271 273 270 272 276 277 279 281 281 280 280 282 284 285 286 286 286 288 288 289 290 292 291 290 290 290 289 288 289 291 291 291 289 288 287 287
293 286 283 279 277 276 274 276 277 276 277 279 282 283 283 281 281 281 281 283 284 285 286 287 289 289 289 289 290 292 291 291 293 292 291 290 291 291 291 291 290 287 287
302 292 283 282 281 281 283 282 283 281 280 281 284 285 285 285 283 282 282 284 285 286 287 289 289 289 289 289 290 291 292 292 292 294 293 292 292 292 292 291 291 289 288
308 306 293 286 284 282 282 284 286 287 286 287 287 288 289 289 290 290 288 288 287 287 288 288 289 290 289 289 290 290 291 293 294 294 293 294 294 293 292 292 291 290 289
308 308 303 295 291 288 286 286 286 286 286 286 288 289 291 292 293 292 291 291 290 290 290 291 291 291 291 291 291 292 293 295 295 295 293 293 294 293 293 293 292 291 291
307 306 304 300 295 291 290 290 289 289 289 287 289 291 293 294 294 293 292 292 292 292 292 292 292 292 293 291 292 292 292 294 294 294 293 292 293 293 294 294 293 292 292
310 306 305 301 297 293 291 292 294 294 292 290 289 291 293 294 294 294 295 295 294 295 294 292 292 291 292 291 292 292 291 293 294 295 294 292 293 293 294 294 293 293 293
310 308 307 305 300 296 294 293 294 296 294 292 291 292 294 294 295 294 294 295 295 295 294 293 292 292 293 292 292 292 293 294 294 295 294 293 293 294 295 295 294 294 294
308 307 305 302 300 297 293 291 292 294 294 293 291 291 292 292 293 294 295 295 294 295 294 294 294 294 295 293 293 294 293 294 295 295 295 295 294 294 295 295 295 295 295
307 307 306 300 297 297 296 294 293 295 294 294 292 292 292 294 294 294 294 294 295 295 296 295 294 294 295 295 294 295 294 294 296 297 297 296 295 295 295 296 295 295 294
307 306 305 302 298 297 296 295 295 297 297 297 295 294 295 297 298 296 295 295 296 296 297 297 298 297 296 296 297 297 296 297 297 298 297 296 296 295 296 296 296 296 295
307 306 305 305 301 298 296 295 295 297 299 300 300 299 298 298 299 298 296 296 296 297 298 298 298 298 297 297 297 297 297 297 297 296 296 297 297 296 296 296 296 297 296
309 306 303 302 301 299 296 295 296 297 298 300 299 298 297 297 297 297 297 298 298 298 299 299 299 298 298 297 297 297 296 296 296 296 296 296 297 297 296 296 297 297 298
Height
5897 5898 5898 5898 5899 5899 5900 5901 5901 5902 5902 5902 5902 5902 5903 5903 5903 5904 5904 5905 5905 5905 5906 5906 5906 5907 5907 5907 5907 5908 5908 5908 5908 5908 5908 5908 5908 5908 5908 5908 5907 5907 5907
5897 5898 5899 5900 5900 5900 5901 5902 5902 5902 5903 5903 5903 5903 5903 5904 5904 5905 5905 5905 5905 5906 5906 5906 5907 5907 5907 5907 5907 5907 5907 5908 5908 5907 5907 5907 5907 5907 5906 5906 5906 5906 5905
5897 5898 5899 5900 5901 5901 5902 5902 5903 5903 5903 5904 5904 5904 5904 5904 5904 5905 5905 5905 5906 5906 5906 5906 5907 5907 5907 5907 5907 5907 5907 5907 5907 5906 5906 5906 5906 5905 5905 5905 5904 5904 5903
5897 5898 5899 5900 5901 5901 5902 5903 5903 5904 5904 5904 5904 5904 5904 5905 5905 5905 5905 5906 5906 5906 5906 5906 5906 5906 5906 5906 5906 5906 5906 5906 5905 5905 5905 5904 5904 5903 5903 5902 5902 5902 5901
5897 5898 5899 5900 5900 5901 5902 5903 5903 5904 5904 5904 5904 5904 5904 5905 5905 5905 5905 5905 5905 5905 5905 5905 5905 5905 5905 5905 5905 5905 5905 5904 5904 5903 5903 5902 5902 5901 5901 5900 5899 5899 5898
5897 5898 5898 5899 5900 5901 5901 5902 5903 5903 5903 5904 5904 5904 5904 5904 5904 5904 5905 5905 5905 5905 5905 5905 5904 5904 5904 5904 5903 5903 5903 5902 5901 5901 5900 5900 5899 5899 5898 5897 5897 5896 5895
5897 5897 5898 5899 5900 5900 5901 5902 5902 5903 5903 5903 5903 5903 5904 5904 5904 5904 5904 5903 5903 5903 5903 5903 5903 5902 5902 5901 5901 5901 5900 5899 5899 5898 5897 5897 5896 5895 5895 5894 5893 5892 5892
5896 5897 5897 5898 5899 5900 5900 5900 5901 5901 5902 5902 5902 5902 5902 5903 5903 5902 5902 5902 5902 5902 5901 5901 5901 5900 5899 5898 5898 5898 5897 5897 5896 5895 5894 5893 5893 5892 5891 5890 5889 5888 5887
5895 5896 5896 5897 5898 5898 5899 5899 5899 5900 5900 5900 5900 5901 5901 5901 5901 5901 5900 5900 5900 5899 5899 5898 5898 5898 5897 5896 5895 5894 5894 5893 5892 5891 5890 5889 5889 5887 5886 5886 5885 5884 5883
5895 5895 5895 5896 5896 5897 5897 5897 5898 5898 5898 5898 5899 5899 5899 5898 5899 5898 5898 5897 5897 5896 5896 5896 5895 5895 5894 5893 5892 5891 5890 5889 5888 5887 5886 5885 5884 5883 5882 5881 5880 5879 5877
5893 5894 5894 5894 5895 5895 5895 5895 5895 5896 5896 5896 5896 5896 5896 5896 5896 5896 5895 5895 5894 5893 5893 5892 5891 5891 5890 5889 5889 5887 5886 5885 5884 5882 5881 5880 5879 5878 5877 5875 5874 5873 5872
5892 5892 5892 5893 5893 5893 5893 5893 5893 5893 5893 5894 5894 5894 5893 5893 5893 5892 5892 5891 5891 5890 5889 5889 5888 5887 5886 5885 5884 5883 5882 5880 5879 5878 5876 5875 5874 5873 5871 5870 5869 5867 5866
5890 5890 5890 5890 5890 5891 5891 5891 5891 5891 5890 5890 5890 5890 5890 5889 5889 5889 5888 5888 5887 5887 5886 5884 5883 5882 5882 5880 5879 5878 5877 5875 5874 5873 5871 5870 5868 5867 5865 5864 5862 5861 5859
5888 5888 5888 5888 5888 5888 5888 5888 5888 5888 5888 5887 5887 5887 5886 5885 5885 5885 5884 5884 5883 5882 5881 5880 5878 5877 5877 5876 5874 5873 5871 5870 5869 5867 5865 5864 5862 5861 5859 5857 5855 5854 5852
5886 5886 5886 5885 5885 5885 5885 5885 5885 5885 5884 5884 5883 5883 5882 5881 5881 5880 5880 5879 5879 5878 5877 5875 5874 5872 5871 5870 5869 5867 5866 5864 5863 5861 5859 5857 5856 5854 5852 5850 5848 5846 5845
5884 5883 5883 5883 5883 5882 5882 5882 5882 5881 5881 5880 5880 5879 5878 5877 5877 5876 5875 5874 5873 5873 5872 5870 5868 5867 5865 5864 5863 5861 5860 5858 5856 5855 5852 5851 5849 5847 5845 5843 5841 5838 5837
5882 5881 5880 5880 5880 5880 5879 5879 5879 5878 5877 5877 5876 5875 5874 5873 5872 5871 5870 5869 5868 5867 5866 5864 5862 5861 5860 5858 5857 5855 5853 5852 5850 5848 5846 5843 5841 5839 5837 5835 5833 5830 5828
5880 5879 5878 5877 5877 5876 5876 5875 5875 5874 5874 5873 5872 5871 5870 5869 5868 5867 5866 5864 5863 5862 5860 5859 5857 5855 5853 5852 5850 5848 5846 5845 5842 5840 5838 5836 5833 5831 5829 5827 5824 5822 5820
5878 5877 5876 5875 5874 5873 5872 5872 5871 5870 5869 5869 5868 5867 5866 5865 5863 5862 5861 5859 5858 5856 5854 5853 5851 5849 5847 5845 5843 5841 5839 5837 5835 5832 5830 5827 5825 5823 5820 5818 5816 5813 5811
5875 5874 5873 5872 5870 5869 5869 5868 5867 5866 5865 5864 5863 5862 5861 5860 5858 5857 5855 5853 5851 5850 5848 5846 5844 5842 5840 5838 5836 5834 5831 5829 5827 5824 5822 5819 5817 5814 5812 5809 5807 5804 5802
5872 5871 5869 5868 5867 5866 5865 5864 5863 5862 5861 5860 5859 5857 5856 5855 5853 5851 5849 5847 5845 5843 5841 5839 5837 5835 5833 5830 5828 5826 5823 5821 5818 5816 5813 5811 5808 5806 5803 5800 5798 5795 5792
5869 5868 5866 5864 5863 5862 5861 5860 5859 5857 5856 5854 5853 5852 5851 5849 5847 5845 5843 5841 5839 5837 5834 5832 5829 5827 5825 5822 5820 5817 5815 5812 5810 5808 5805 5802 5800 5797 5794 5791 5788 5785 5782
5866 5864 5862 5860 5858 5857 5856 5855 5854 5852 5850 5848 5847 5846 5844 5842 5840 5838 5836 5834 5832 5829 5827 5824 5822 5819 5817 5814 5811 5809 5806 5804 5801 5798 5796 5793 5791 5788 5785 5782 5779 5776 5773
5861 5860 5858 5855 5854 5853 5851 5850 5848 5847 5845 5843 5841 5840 5838 5836 5834 5832 5829 5827 5825 5822 5819 5817 5814 5811 5808 5806 5803 5801 5798 5795 5793 5790 5787 5784 5781 5778 5776 5773 5769 5766 5763
5857 5855 5853 5851 5849 5847 5846 5845 5843 5842 5840 5838 5836 5834 5832 5829 5827 5825 5823 5820 5818 5815 5812 5809 5806 5803 5800 5797 5795 5792 5789 5787 5784 5781 5778 5775 5772 5769 5766 5763 5760 5757 5754
5852 5850 5848 5846 5844 5842 5840 5839 5837 5836 5834 5832 5830 5827 5825 5822 5820 5818 5815 5812 5810 5807 5804 5802 5799 5796 5793 5789 5786 5784 5781 5778 5775 5772 5769 5766 5763 5760 5757 5754 5751 5747 5744